METEOR 2-17 DEB, 35370

Orbit data source: Space-Track

METEOR 2-17 DEB, 35370 is space debris in LEO originally from a launch on Sat, 30 Jan 1988 UTC launched from the Plesetsk Missile And Space Complex (PKMTR). Debris objects in space refer to the collection of defunct objects orbiting the Earth. Examples of debris include non-operational satellites, rocket bodies, and fragments generated from explosions, collisions, or faulty payload assembly.

Loading next visibility...
Identifier
35370, 1988-005AE
Orbit
LEO
Country
Flag of CISCIS
Related business
Manufacturer
Unknown
Mission
Spacecraft
Bus & Motor
Unknown
Mass
Unknown
Launch date (UTC)
1988-01-30 (38 years ago)
Launch vehicle
Unknown
Launch site
Plesetsk Missile And Space Complex (PKMTR)
Object type
Payload
Rocket body
Debris
Shape & HBR
Unknown shape, 0.1 m
Radar Cross Section
Small (<0.1 m²)

Expand to show TLE details & history
Last TLE update: 6 days ago

TLE from 6 days ago
0 METEOR 2-17 DEB
1 35370U 88005AE  25301.15510740  .00004167  00000-0  27772-2 0  9998
2 35370  82.5206  87.4223 0024501 237.1668 246.6050 14.00780418932587
Epoch: 2025-10-28T03:43Z
TLE epoch observation values (Epoch: 2025-10-28T03:43:21.279Z)
Latitude
55.85465°
Longitude
163.73446°
Altitude
907.497 km
Speed
7.4 km/s
True Right ascension
17h 05m 16s
True Declination
55° 41' 53"
Sunlit
Object was in daylight at epoch
Visualization orbit readout
Latitude
Unknown
Longitude
Unknown
Altitude
Unknown
Speed
Unknown
Apparent Right ascension
Unknown
Apparent Declination
Unknown
Sunlit
N/A
Visualization observer readout
Local Sidereal Time
07:21:47
Azimuth
Unknown
Elevation
Unknown
Doppler factor
Unknown
Orbital elements
Apogee altitude
906.027 km
Perigee altitude
870.421 km
Semi-major axis
7,266.361 km
Eccentricity
0.00245
Inclination
82.5206°
RAAN
87.4223°
Arg. of periapsis
237.1668°
True anomaly
246.34763°
Mean anomaly
246.605°
Eccentric anomaly
246.47629°
Mean motion
3.50403 °/min
Orbital period
102.74 mins
BSTAR
0.0027772
Loading maneuver chart data...
Computing Atmospheric mass density...
Loading historical data...
Loading historical data...
Loading historical data...
Loading historical data...
Loading historical data...
Loading historical data...
Loading historical data...

Documentation

Showing up to 5 results
|